カタログに戻る

STARLINK-35941

運用中通信VLEO
NORAD 66583·PAYLOAD·🇺🇸 United States

打ち上げ Nov 21, 2025 から Cape Canaveral Space Force Station

Loading…

次のパス (今後24時間)

TLE

最新Source: CelesTrak SupGP

元期: Sep 15, 2026, 03:04 UTC

1 66583C 25268AC  26258.12826389  .00041113  00000+0  14891-2 0  2585
2 66583  43.0031 356.8868 0001261 266.2967 165.9621 15.27558441    16

AllMySatでSTARLINK-35941をリアルタイム追跡

Download on the App Store